FIN5BT EFHK-EDDF

Flight info

Callsign FIN5BT
Flight time N/A
Altitude 40000
Route NUNTO Y369 REKDO DCT KOSKA DCT BIKRU DCT HLZ DCT RIMET/N0498F310 T157 KOKEB/N0453F230 T157 KERAX KERAX5A
Aircraft A359/H-SDE2E3GHIJ3J4J5LM1ORWXY/LB1D1

Departure

Time 2026-04-23 19:31
Airport Helsinki Vantaa Airport (EFHK)

Arrival

Time N/A
Airport Frankfurt Main Airport (EDDF)
Time Latitude Longitude Altitude Speed Heading
2026-04-23 19:02 60.31666 24.96047 173 ft 0 kts 138°
2026-04-23 19:21 60.31668 24.96044 173 ft 2 kts 138°
2026-04-23 19:22 60.31687 24.96011 173 ft 4 kts 144°
2026-04-23 19:22 60.31710 24.95981 173 ft 4 kts 153°
2026-04-23 19:22 60.31757 24.95967 173 ft 2 kts 225°
2026-04-23 19:23 60.31758 24.95970 173 ft 4 kts 227°
2026-04-23 19:25 60.31752 24.95956 173 ft 5 kts 228°
2026-04-23 19:26 60.31651 24.95677 173 ft 11 kts 274°
2026-04-23 19:26 60.31698 24.95550 169 ft 10 kts 306°
2026-04-23 19:27 60.31662 24.95371 176 ft 12 kts 227°
2026-04-23 19:27 60.31354 24.94688 168 ft 26 kts 228°
2026-04-23 19:28 60.31208 24.94365 165 ft 9 kts 227°
2026-04-23 19:28 60.31085 24.94093 164 ft 16 kts 228°
2026-04-23 19:29 60.31038 24.93938 165 ft 12 kts 258°
2026-04-23 19:29 60.31107 24.93713 164 ft 11 kts 320°
2026-04-23 19:30 60.31172 24.93737 164 ft 6 kts 51°
2026-04-23 19:30 60.31178 24.93749 165 ft 0 kts 47°
2026-04-23 19:30 60.31279 24.93971 166 ft 56 kts 47°
2026-04-23 19:31 60.31711 24.94915 177 ft 124 kts 47°
2026-04-23 19:31 60.32416 24.96480 333 ft 165 kts 47°
2026-04-23 19:31 60.33149 24.98195 1173 ft 158 kts 48°
2026-04-23 19:31 60.33836 24.99872 2067 ft 151 kts 45°
2026-04-23 19:32 60.34554 25.01413 2638 ft 162 kts 41°
2026-04-23 19:32 60.35411 25.03177 2932 ft 190 kts 42°
2026-04-23 19:32 60.36392 25.05255 3280 ft 218 kts 43°
2026-04-23 19:32 60.37481 25.07623 3710 ft 240 kts 44°
2026-04-23 19:33 60.38630 25.10160 4475 ft 248 kts 44°
2026-04-23 19:33 60.39975 25.12326 5267 ft 248 kts 21°
2026-04-23 19:33 60.43404 25.13012 7037 ft 252 kts 358°
2026-04-23 19:34 60.45123 25.12469 8090 ft 249 kts 343°
2026-04-23 19:34 60.46662 25.10884 9179 ft 251 kts 324°
2026-04-23 19:34 60.48243 25.04400 10604 ft 295 kts 275°
2026-04-23 19:35 60.47770 25.00108 10984 ft 330 kts 254°
2026-04-23 19:35 60.46672 24.95801 11329 ft 357 kts 245°
2026-04-23 19:35 60.45277 24.91502 11966 ft 370 kts 242°
2026-04-23 19:35 60.43809 24.87158 12742 ft 377 kts 243°
2026-04-23 19:36 60.42357 24.82683 13519 ft 382 kts 244°
2026-04-23 19:36 60.40889 24.78143 14198 ft 393 kts 238°
2026-04-23 19:36 60.38806 24.74480 14882 ft 411 kts 218°
2026-04-23 19:36 60.36459 24.71142 15565 ft 415 kts 221°
2026-04-23 19:37 60.34307 24.67322 16207 ft 407 kts 239°
2026-04-23 19:37 60.32660 24.62718 16930 ft 404 kts 246°
2026-04-23 19:37 60.31233 24.57833 17688 ft 404 kts 250°
2026-04-23 19:37 60.29915 24.52799 18418 ft 406 kts 252°
2026-04-23 19:38 60.28630 24.47697 19041 ft 411 kts 253°
2026-04-23 19:38 60.27336 24.42565 19655 ft 417 kts 253°
2026-04-23 19:38 60.25993 24.37328 20242 ft 424 kts 252°
2026-04-23 19:38 60.24605 24.32029 20881 ft 430 kts 252°
2026-04-23 19:39 60.23182 24.26682 21521 ft 436 kts 252°
2026-04-23 19:39 60.21730 24.21284 22135 ft 441 kts 252°
2026-04-23 19:39 60.20253 24.15828 22763 ft 447 kts 252°
2026-04-23 19:39 60.18752 24.10306 23417 ft 452 kts 252°
2026-04-23 19:40 60.17235 24.04739 23924 ft 457 kts 252°
2026-04-23 19:40 60.15699 23.99109 24449 ft 460 kts 252°
2026-04-23 19:40 60.14153 23.93462 25040 ft 463 kts 252°
2026-04-23 19:40 60.12594 23.87776 25609 ft 466 kts 252°
2026-04-23 19:41 60.11025 23.82056 26165 ft 470 kts 252°
2026-04-23 19:41 60.09442 23.76299 26725 ft 473 kts 252°
2026-04-23 19:41 60.07860 23.70568 27208 ft 477 kts 252°
2026-04-23 19:41 60.06239 23.64719 27724 ft 482 kts 252°
2026-04-23 19:42 60.04605 23.58838 28265 ft 485 kts 252°
2026-04-23 19:42 60.02956 23.52915 28766 ft 489 kts 252°
2026-04-23 19:42 60.01290 23.46949 29280 ft 492 kts 252°
2026-04-23 19:42 59.99612 23.40951 29774 ft 496 kts 252°
2026-04-23 19:43 59.97922 23.34927 30214 ft 499 kts 252°
2026-04-23 19:43 59.96213 23.28852 30593 ft 503 kts 251°
2026-04-23 19:43 59.94490 23.22741 30986 ft 506 kts 251°
2026-04-23 19:43 59.92757 23.16616 31353 ft 509 kts 251°
2026-04-23 19:44 59.91011 23.10459 31715 ft 511 kts 251°
2026-04-23 19:44 59.89275 23.04358 32030 ft 514 kts 251°
2026-04-23 19:44 59.87507 22.98146 32251 ft 517 kts 250°
2026-04-23 19:44 59.85726 22.91927 32710 ft 517 kts 250°
2026-04-23 19:45 59.83946 22.85740 33245 ft 514 kts 250°
2026-04-23 19:45 59.82170 22.79580 33753 ft 512 kts 250°
2026-04-23 19:45 59.80398 22.73441 34160 ft 511 kts 250°
2026-04-23 19:45 59.78626 22.67313 34525 ft 511 kts 250°
2026-04-23 19:46 59.76858 22.61208 34871 ft 510 kts 249°
2026-04-23 19:46 59.75682 22.57156 35097 ft 510 kts 249°
2026-04-23 19:46 59.73912 22.51069 35440 ft 510 kts 249°
2026-04-23 19:46 59.72139 22.44989 35766 ft 510 kts 249°
2026-04-23 19:47 59.70362 22.38915 36090 ft 509 kts 249°
2026-04-23 19:47 59.68581 22.32840 36383 ft 510 kts 248°
2026-04-23 19:47 59.66795 22.26767 36683 ft 509 kts 248°
2026-04-23 19:47 59.65009 22.20708 36982 ft 509 kts 248°
2026-04-23 19:48 59.63220 22.14658 37297 ft 509 kts 248°
2026-04-23 19:48 59.61446 22.08673 37589 ft 509 kts 248°
2026-04-23 19:48 59.59650 22.02632 37864 ft 509 kts 248°
2026-04-23 19:48 59.57857 21.96616 38152 ft 507 kts 247°
2026-04-23 19:49 59.56072 21.90645 38512 ft 505 kts 247°
2026-04-23 19:49 59.54284 21.84679 38740 ft 505 kts 247°
2026-04-23 19:49 59.52497 21.78725 38919 ft 505 kts 247°
2026-04-23 19:49 59.50705 21.72766 39076 ft 505 kts 247°
2026-04-23 19:50 59.48909 21.66815 39279 ft 505 kts 246°
2026-04-23 19:50 59.47114 21.60881 39457 ft 505 kts 246°
2026-04-23 19:50 59.45316 21.54955 39641 ft 505 kts 246°
2026-04-23 19:50 59.43540 21.49099 39804 ft 505 kts 246°
2026-04-23 19:51 59.41737 21.43182 39926 ft 506 kts 246°
2026-04-23 19:51 59.38105 21.31322 39942 ft 506 kts 246°
2026-04-23 19:52 59.34466 21.19508 39945 ft 506 kts 245°
2026-04-23 19:52 59.30816 21.07706 39940 ft 506 kts 245°
2026-04-23 19:53 59.27160 20.95943 39940 ft 505 kts 245°
2026-04-23 19:53 59.23496 20.84215 39940 ft 505 kts 245°
2026-04-23 19:54 59.19829 20.72600 39951 ft 507 kts 243°
2026-04-23 19:54 59.15138 20.61993 39955 ft 519 kts 230°
2026-04-23 19:55 59.09883 20.52447 39959 ft 521 kts 228°
2026-04-23 19:55 59.04471 20.42987 39965 ft 522 kts 227°
2026-04-23 19:56 58.99063 20.33547 39974 ft 522 kts 227°
2026-04-23 19:56 58.93669 20.24110 39973 ft 522 kts 228°
2026-04-23 19:57 58.88306 20.14741 39951 ft 522 kts 227°
2026-04-23 19:57 58.82907 20.05346 39982 ft 522 kts 227°
2026-04-23 19:58 58.77494 19.95974 39983 ft 523 kts 227°
2026-04-23 19:58 58.72076 19.86633 39968 ft 522 kts 227°
2026-04-23 19:59 58.66655 19.77331 39986 ft 522 kts 227°
2026-04-23 19:59 58.61230 19.68060 39989 ft 522 kts 227°
2026-04-23 20:00 58.55834 19.58877 39994 ft 522 kts 227°
2026-04-23 20:00 58.50395 19.49661 39996 ft 522 kts 227°
2026-04-23 20:01 58.44950 19.40476 39998 ft 522 kts 227°
2026-04-23 20:01 58.39488 19.31303 39987 ft 522 kts 226°
2026-04-23 20:02 58.34017 19.22152 39997 ft 522 kts 226°
2026-04-23 20:02 58.28548 19.13045 40001 ft 523 kts 226°
2026-04-23 20:03 58.23104 19.04018 40004 ft 523 kts 226°
2026-04-23 20:03 58.17624 18.94968 39986 ft 522 kts 226°
2026-04-23 20:04 58.12131 18.85938 40007 ft 520 kts 226°
2026-04-23 20:04 58.06657 18.76976 40012 ft 520 kts 226°
2026-04-23 20:05 58.01185 18.68055 40012 ft 520 kts 226°
2026-04-23 20:05 57.95705 18.59159 40009 ft 518 kts 226°
2026-04-23 20:06 57.90287 18.50402 40009 ft 515 kts 226°
2026-04-23 20:06 57.84854 18.41652 40003 ft 514 kts 226°
2026-04-23 20:07 57.79408 18.32916 39999 ft 514 kts 226°
2026-04-23 20:07 57.73955 18.24206 39994 ft 514 kts 226°
2026-04-23 20:08 57.68537 18.15590 39995 ft 514 kts 226°
2026-04-23 20:08 57.63086 18.06957 40034 ft 512 kts 226°
2026-04-23 20:09 57.57631 17.98353 40034 ft 512 kts 226°
2026-04-23 20:09 57.52184 17.89794 40035 ft 512 kts 226°
2026-04-23 20:10 57.47642 17.82683 40030 ft 512 kts 225°
2026-04-23 20:10 57.41297 17.72791 40039 ft 512 kts 225°
2026-04-23 20:11 57.35822 17.64293 40040 ft 512 kts 225°
2026-04-23 20:11 57.30339 17.55816 40040 ft 513 kts 225°
2026-04-23 20:12 57.24893 17.47431 40033 ft 513 kts 225°
2026-04-23 20:12 57.19402 17.39008 40043 ft 514 kts 225°
2026-04-23 20:13 57.13892 17.30592 40044 ft 514 kts 225°
2026-04-23 20:13 57.08377 17.22202 40048 ft 514 kts 225°
2026-04-23 20:14 57.02851 17.13828 40057 ft 514 kts 225°
2026-04-23 20:14 56.97325 17.05486 40059 ft 515 kts 225°
2026-04-23 20:15 56.91788 16.97163 40059 ft 515 kts 225°
2026-04-23 20:15 56.86275 16.88909 40059 ft 515 kts 224°
2026-04-23 20:16 56.80725 16.80631 40055 ft 515 kts 224°
2026-04-23 20:16 56.75163 16.72368 40052 ft 515 kts 224°
2026-04-23 20:17 56.69602 16.64138 40055 ft 515 kts 224°
2026-04-23 20:17 56.64030 16.55925 40052 ft 515 kts 224°
2026-04-23 20:18 56.58487 16.47787 40050 ft 515 kts 224°
2026-04-23 20:18 56.52904 16.39622 40019 ft 514 kts 224°
2026-04-23 20:19 56.47353 16.31538 40067 ft 510 kts 224°
2026-04-23 20:19 56.41816 16.23502 40069 ft 509 kts 224°
2026-04-23 20:20 56.36286 16.15506 40073 ft 509 kts 224°
2026-04-23 20:20 56.30781 16.07577 40063 ft 509 kts 224°
2026-04-23 20:21 56.25235 15.99622 40067 ft 508 kts 224°
2026-04-23 20:21 56.19700 15.91711 40064 ft 508 kts 224°
2026-04-23 20:22 56.14167 15.83831 40065 ft 508 kts 224°
2026-04-23 20:22 56.08662 15.76023 40058 ft 508 kts 224°
2026-04-23 20:23 56.03114 15.68184 40064 ft 508 kts 224°
2026-04-23 20:23 55.97560 15.60364 40063 ft 508 kts 224°
2026-04-23 20:24 55.92007 15.52576 40070 ft 508 kts 223°
2026-04-23 20:24 55.86444 15.44802 40060 ft 508 kts 223°
2026-04-23 20:25 55.80862 15.37029 40070 ft 510 kts 223°
2026-04-23 20:25 55.75269 15.29272 40069 ft 509 kts 223°
2026-04-23 20:26 55.69713 15.21599 40072 ft 509 kts 223°
2026-04-23 20:26 55.64121 15.13902 40078 ft 509 kts 223°
2026-04-23 20:27 55.58519 15.06218 40084 ft 509 kts 223°
2026-04-23 20:27 55.52911 14.98555 40083 ft 509 kts 223°
2026-04-23 20:28 55.47316 14.90938 40080 ft 509 kts 222°
2026-04-23 20:28 55.41744 14.83381 40080 ft 509 kts 222°
2026-04-23 20:29 55.36126 14.75788 40085 ft 509 kts 222°
2026-04-23 20:29 55.30507 14.68222 40084 ft 509 kts 222°
2026-04-23 20:30 55.24873 14.60664 40081 ft 509 kts 222°
2026-04-23 20:30 55.16430 14.49389 40081 ft 509 kts 222°
2026-04-23 20:31 55.10796 14.41900 40083 ft 509 kts 222°
2026-04-23 20:31 55.05162 14.34438 40079 ft 507 kts 222°
2026-04-23 20:32 54.99548 14.27033 40098 ft 504 kts 222°
2026-04-23 20:32 54.94000 14.19736 40095 ft 503 kts 221°
2026-04-23 20:33 54.88438 14.12322 40106 ft 502 kts 223°
2026-04-23 20:33 54.83055 14.04594 40109 ft 501 kts 225°
2026-04-23 20:34 54.78601 13.98140 40117 ft 502 kts 224°
2026-04-23 20:34 54.73218 13.90446 40121 ft 502 kts 224°
2026-04-23 20:35 54.66932 13.81572 40123 ft 501 kts 223°
2026-04-23 20:35 54.62400 13.75210 40126 ft 501 kts 223°
2026-04-23 20:36 54.57015 13.67672 40129 ft 501 kts 223°
2026-04-23 20:36 54.51585 13.60096 40131 ft 501 kts 223°
2026-04-23 20:37 54.46178 13.52576 40136 ft 500 kts 223°
2026-04-23 20:37 54.40767 13.45078 40130 ft 498 kts 223°
2026-04-23 20:38 54.35371 13.37626 40135 ft 497 kts 223°
2026-04-23 20:38 54.30012 13.30251 40135 ft 497 kts 223°
2026-04-23 20:39 54.24620 13.22854 40133 ft 497 kts 222°
2026-04-23 20:39 54.19213 13.15464 40138 ft 497 kts 222°
2026-04-23 20:40 54.13806 13.08100 40138 ft 497 kts 222°
2026-04-23 20:40 54.08396 13.00757 40138 ft 497 kts 222°
2026-04-23 20:41 54.02977 12.93425 40135 ft 497 kts 222°
2026-04-23 20:41 53.97586 12.86159 40137 ft 497 kts 221°
2026-04-23 20:42 53.92163 12.78873 40137 ft 497 kts 221°
2026-04-23 20:42 53.86727 12.71595 40138 ft 497 kts 221°
2026-04-23 20:43 53.81299 12.64350 40136 ft 497 kts 221°
2026-04-23 20:43 53.75868 12.57128 40137 ft 495 kts 221°
2026-04-23 20:44 53.70448 12.49946 40139 ft 494 kts 221°
2026-04-23 20:44 53.65070 12.42842 40145 ft 494 kts 221°
2026-04-23 20:45 53.59651 12.35707 40146 ft 494 kts 221°
2026-04-23 20:45 53.54213 12.28572 40159 ft 494 kts 220°
2026-04-23 20:46 53.48813 12.21510 40162 ft 495 kts 220°
2026-04-23 20:46 53.43380 12.14429 40162 ft 495 kts 220°
2026-04-23 20:47 53.37934 12.07354 40162 ft 495 kts 220°
2026-04-23 20:47 53.32489 12.00303 40170 ft 495 kts 220°
2026-04-23 20:48 53.27039 11.93276 40172 ft 495 kts 220°
2026-04-23 20:48 53.21146 11.87202 40178 ft 498 kts 211°
2026-04-23 20:49 53.15044 11.81698 40182 ft 498 kts 210°
2026-04-23 20:49 53.08974 11.76275 40179 ft 497 kts 210°
2026-04-23 20:50 53.02881 11.70853 40181 ft 496 kts 210°
2026-04-23 20:50 52.96793 11.65453 40184 ft 496 kts 210°
2026-04-23 20:51 52.90701 11.60068 40184 ft 496 kts 210°
2026-04-23 20:51 52.84608 11.54700 40189 ft 496 kts 210°
2026-04-23 20:52 52.78512 11.49346 40192 ft 496 kts 210°
2026-04-23 20:52 52.72415 11.44008 40192 ft 496 kts 210°
2026-04-23 20:53 52.66354 11.38718 40194 ft 496 kts 209°
2026-04-23 20:53 52.60249 11.33408 40200 ft 496 kts 209°
2026-04-23 20:54 52.54135 11.28106 40197 ft 496 kts 209°
2026-04-23 20:54 52.48025 11.22824 40203 ft 496 kts 209°
2026-04-23 20:55 52.41948 11.17587 40214 ft 496 kts 209°
2026-04-23 20:55 52.35841 11.12341 40215 ft 496 kts 208°
2026-04-23 20:56 52.29723 11.07103 40218 ft 496 kts 208°
2026-04-23 20:56 52.23608 11.01883 40224 ft 496 kts 208°
2026-04-23 20:57 52.17482 10.96668 40224 ft 497 kts 208°
2026-04-23 20:57 52.11341 10.91460 40226 ft 497 kts 208°
2026-04-23 20:58 52.05243 10.86303 40226 ft 497 kts 208°
2026-04-23 20:58 51.99097 10.81122 40236 ft 497 kts 208°
2026-04-23 20:59 51.92968 10.75971 40233 ft 495 kts 208°
2026-04-23 20:59 51.86841 10.70839 40239 ft 495 kts 208°
2026-04-23 21:00 51.80715 10.65721 40240 ft 495 kts 208°
2026-04-23 21:00 51.74580 10.60613 40246 ft 496 kts 207°
2026-04-23 21:01 51.68436 10.55533 40150 ft 496 kts 207°
2026-04-23 21:01 51.65396 10.53073 39924 ft 495 kts 207°
2026-04-23 21:01 51.62313 10.50583 39676 ft 495 kts 207°
2026-04-23 21:02 51.59227 10.48091 39426 ft 496 kts 207°
2026-04-23 21:02 51.56144 10.45601 39206 ft 496 kts 206°
2026-04-23 21:02 51.53057 10.43112 38970 ft 497 kts 206°
2026-04-23 21:02 51.49969 10.40623 38711 ft 497 kts 206°
2026-04-23 21:03 51.46883 10.38139 38221 ft 494 kts 206°
2026-04-23 21:03 51.43813 10.35672 37500 ft 493 kts 206°
2026-04-23 21:03 51.40755 10.33218 36793 ft 493 kts 206°
2026-04-23 21:03 51.37680 10.30753 36052 ft 493 kts 206°
2026-04-23 21:04 51.34609 10.28296 35255 ft 495 kts 206°
2026-04-23 21:04 51.31526 10.25833 34386 ft 499 kts 206°
2026-04-23 21:04 51.29672 10.24353 33816 ft 501 kts 206°
2026-04-23 21:04 51.26745 10.22020 32902 ft 504 kts 206°
2026-04-23 21:05 51.23588 10.19508 31975 ft 506 kts 206°
2026-04-23 21:05 51.20423 10.16992 31002 ft 509 kts 206°
2026-04-23 21:05 51.17239 10.14466 29959 ft 512 kts 206°
2026-04-23 21:05 51.14046 10.11937 29035 ft 510 kts 206°
2026-04-23 21:06 51.10891 10.09440 28306 ft 505 kts 206°
2026-04-23 21:06 51.07742 10.06953 27585 ft 500 kts 206°
2026-04-23 21:06 51.04681 10.04538 26868 ft 496 kts 206°
2026-04-23 21:06 51.01590 10.02105 26137 ft 493 kts 206°
2026-04-23 21:07 50.98530 9.99699 25431 ft 490 kts 206°
2026-04-23 21:07 50.95483 9.97307 24712 ft 486 kts 206°
2026-04-23 21:07 50.92461 9.94938 24001 ft 484 kts 206°
2026-04-23 21:07 50.89452 9.92582 23210 ft 480 kts 206°
2026-04-23 21:08 50.86458 9.90242 22459 ft 475 kts 206°
2026-04-23 21:08 50.83538 9.87962 21766 ft 470 kts 206°
2026-04-23 21:08 50.80591 9.85665 21043 ft 465 kts 206°
2026-04-23 21:08 50.77736 9.83444 20344 ft 460 kts 206°
2026-04-23 21:09 50.74883 9.81226 19639 ft 456 kts 206°
2026-04-23 21:09 50.72043 9.79021 18925 ft 452 kts 206°
2026-04-23 21:09 50.69234 9.76844 18184 ft 448 kts 206°
2026-04-23 21:09 50.66449 9.74688 17398 ft 444 kts 206°
2026-04-23 21:10 50.63690 9.72555 16651 ft 440 kts 206°
2026-04-23 21:10 50.60955 9.70444 15906 ft 435 kts 206°
2026-04-23 21:10 50.58252 9.68359 15190 ft 431 kts 206°
2026-04-23 21:10 50.55573 9.66296 14488 ft 427 kts 207°
2026-04-23 21:11 50.52917 9.64253 13750 ft 423 kts 207°
2026-04-23 21:11 50.50286 9.62232 12964 ft 419 kts 207°
2026-04-23 21:11 50.47684 9.60235 12196 ft 414 kts 207°
2026-04-23 21:11 50.45106 9.58259 11495 ft 409 kts 207°
2026-04-23 21:12 50.42595 9.56338 11223 ft 393 kts 207°
2026-04-23 21:12 50.40194 9.54503 11032 ft 375 kts 207°
2026-04-23 21:12 50.37898 9.52744 10898 ft 358 kts 207°
2026-04-23 21:12 50.35853 9.50735 10886 ft 336 kts 220°
2026-04-23 21:13 50.34266 9.48208 10787 ft 317 kts 234°
2026-04-23 21:13 50.33020 9.45429 10553 ft 307 kts 239°
2026-04-23 21:13 50.31877 9.42648 10200 ft 303 kts 240°
2026-04-23 21:13 50.30757 9.39864 9696 ft 302 kts 240°
2026-04-23 21:14 50.29649 9.37093 9320 ft 297 kts 240°
2026-04-23 21:14 50.28574 9.34400 8987 ft 293 kts 241°
2026-04-23 21:14 50.27500 9.31703 8627 ft 292 kts 241°
2026-04-23 21:14 50.26429 9.29011 8287 ft 290 kts 241°
2026-04-23 21:15 50.25364 9.26337 7941 ft 288 kts 241°
2026-04-23 21:15 50.24307 9.23688 7596 ft 286 kts 241°
2026-04-23 21:15 50.23266 9.21079 7257 ft 285 kts 241°
2026-04-23 21:15 50.22220 9.18459 6914 ft 284 kts 241°
2026-04-23 21:16 50.21178 9.15851 6558 ft 282 kts 241°
2026-04-23 21:16 50.20142 9.13261 6216 ft 281 kts 241°
2026-04-23 21:16 50.19108 9.10680 5878 ft 279 kts 241°
2026-04-23 21:16 50.18079 9.08112 5533 ft 278 kts 240°
2026-04-23 21:17 50.17055 9.05559 5266 ft 273 kts 240°
2026-04-23 21:17 50.16065 9.03100 5111 ft 261 kts 240°
2026-04-23 21:17 50.15132 9.00786 4994 ft 250 kts 241°
2026-04-23 21:17 50.14225 8.98533 4901 ft 237 kts 241°
2026-04-23 21:18 50.13351 8.96434 4845 ft 225 kts 238°
2026-04-23 21:18 50.12569 8.94425 4780 ft 209 kts 248°
2026-04-23 21:18 50.12029 8.92347 4731 ft 205 kts 254°
2026-04-23 21:18 50.11543 8.90259 4649 ft 205 kts 254°
2026-04-23 21:19 50.11040 8.88180 4414 ft 205 kts 253°
2026-04-23 21:19 50.10707 8.86807 4226 ft 205 kts 253°
2026-04-23 21:19 50.10212 8.84725 3925 ft 205 kts 253°
2026-04-23 21:19 50.09561 8.81986 3577 ft 201 kts 254°
2026-04-23 21:20 50.09078 8.79959 3258 ft 198 kts 254°
2026-04-23 21:20 50.08605 8.77967 2975 ft 194 kts 254°
2026-04-23 21:20 50.08297 8.76672 2812 ft 191 kts 254°
2026-04-23 21:20 50.07837 8.74746 2547 ft 187 kts 255°
2026-04-23 21:21 50.07391 8.72872 2308 ft 181 kts 255°
2026-04-23 21:21 50.06966 8.71090 2082 ft 170 kts 255°
2026-04-23 21:21 50.06568 8.69417 1846 ft 160 kts 255°
2026-04-23 21:21 50.06198 8.67852 1629 ft 150 kts 255°
2026-04-23 21:22 50.05853 8.66369 1426 ft 141 kts 256°
2026-04-23 21:22 50.05528 8.64925 1267 ft 141 kts 254°
2026-04-23 21:22 50.05182 8.63503 1082 ft 139 kts 251°
2026-04-23 21:22 50.04826 8.62131 892 ft 136 kts 252°
2026-04-23 21:23 50.04513 8.60760 688 ft 133 kts 252°
2026-04-23 21:23 50.04189 8.59430 517 ft 131 kts 253°
2026-04-23 21:23 50.03864 8.58052 375 ft 137 kts 253°
2026-04-23 21:23 50.03581 8.56868 366 ft 95 kts 249°